Theta_e
330 330 329 328 327 325 322 318 316 312 308 302 301 301 300 300 300 300 300 301 299 302 315 318 317 318 318 319 320 318 318 316 316 316 317 318 318 318 319 319 321 322 323
333 328 328 328 327 325 324 320 316 314 311 304 300 300 300 300 299 300 300 300 301 302 312 316 318 318 319 319 319 319 316 315 315 314 316 316 316 316 315 315 315 316 318
333 328 329 329 327 326 325 321 317 315 313 309 302 300 300 299 299 299 299 300 301 303 308 315 317 319 320 320 320 318 316 313 314 311 313 314 314 314 312 311 311 312 314
332 330 328 328 328 327 326 322 319 316 314 311 307 301 299 298 298 298 298 299 301 302 305 310 316 318 319 319 318 317 315 313 313 310 312 313 313 312 310 310 310 311 312
330 329 329 328 327 327 324 322 319 316 314 311 307 302 299 298 298 298 298 298 300 301 304 307 309 312 316 318 316 316 316 313 313 310 311 311 311 310 309 308 309 309 310
327 327 328 327 327 325 322 320 318 316 313 311 307 303 300 298 297 297 297 297 298 300 303 305 308 312 315 315 313 316 316 315 312 310 310 309 308 308 308 308 307 307 308
322 322 321 320 321 321 319 318 316 314 312 308 303 302 301 299 298 297 297 297 297 298 301 304 307 311 313 313 312 316 315 315 312 310 309 307 307 307 307 307 306 307 307
313 315 316 315 314 313 313 312 313 310 308 307 301 295 294 297 298 298 297 297 297 297 299 302 304 306 310 311 311 311 315 313 312 310 308 307 306 306 306 306 306 306 306
302 304 305 307 310 310 308 308 307 306 304 304 301 299 295 293 291 295 296 296 296 296 297 299 301 302 303 307 309 309 309 312 312 311 309 307 305 305 305 305 305 305 305
298 299 300 300 300 300 302 305 305 303 302 301 300 298 297 295 294 294 296 296 296 296 296 296 297 298 298 299 301 305 305 307 310 311 309 306 305 304 304 304 304 304 305
292 293 295 297 298 297 297 298 300 303 302 299 298 297 297 296 294 292 295 293 296 297 296 296 296 296 296 295 295 296 298 299 305 309 309 306 304 303 303 303 304 304 304
285 285 286 288 291 293 294 294 295 297 298 300 300 297 296 295 295 293 292 294 293 295 296 297 297 297 296 296 295 294 294 295 298 306 309 307 303 301 301 302 303 303 303
284 285 285 285 285 285 285 287 291 292 294 295 296 297 297 296 295 295 294 295 293 294 295 296 297 297 298 297 296 295 294 294 296 303 307 306 304 300 299 300 302 302 303
285 285 285 285 285 285 284 285 285 285 286 290 291 292 293 294 295 295 294 294 294 295 295 293 294 295 296 297 296 295 294 293 293 299 303 304 303 301 299 298 300 301 302
285 285 285 285 285 285 285 284 284 284 284 284 284 285 288 290 291 293 294 294 293 294 295 296 295 295 295 296 296 295 294 294 292 293 299 301 299 299 297 297 298 300 300
285 284 284 284 284 284 284 284 284 284 283 284 284 284 284 284 286 289 291 292 293 292 293 294 294 295 295 295 295 295 295 294 293 292 292 296 297 297 296 296 297 298 299
284 283 283 283 283 283 282 282 282 282 282 282 283 282 283 284 284 284 285 288 290 291 290 292 292 293 293 294 295 295 294 293 293 292 291 291 295 295 295 295 296 296 297
283 283 282 282 282 281 281 280 280 280 280 280 281 281 282 282 283 283 284 284 286 287 289 289 290 291 292 293 293 294 294 294 293 293 292 291 291 294 294 293 294 295 296
282 281 281 280 280 279 279 278 278 278 279 279 280 280 281 281 282 282 283 284 284 285 287 288 288 289 289 290 291 292 292 292 292 292 292 291 290 292 293 293 292 293 294
280 279 278 277 277 277 277 277 278 278 278 279 279 279 280 280 281 282 282 283 283 284 285 286 287 287 288 289 289 288 289 290 290 291 291 290 290 291 292 292 292 292 293
278 276 276 276 275 275 276 277 278 278 278 278 278 278 279 279 280 281 281 282 283 284 285 285 286 286 287 287 287 288 287 288 289 290 290 290 288 289 291 291 291 291 291
276 275 274 273 273 273 274 275 276 276 277 277 278 278 278 278 278 278 280 281 282 283 284 285 285 286 286 287 288 287 287 287 287 287 287 287 287 287 288 289 290 291 290
274 273 271 270 270 269 271 272 273 273 273 273 274 275 276 276 277 277 277 278 278 279 281 283 284 286 286 286 287 288 287 287 288 288 287 285 285 285 286 287 289 290 290
271 270 269 268 268 268 269 269 270 271 271 271 271 271 272 273 273 274 274 275 275 276 278 279 281 282 283 285 287 287 287 287 287 287 288 286 287 285 285 285 286 288 289
269 269 267 266 266 265 266 268 269 269 269 270 270 270 271 271 272 273 274 275 275 275 276 277 278 280 282 284 284 286 287 287 287 287 286 286 287 286 285 285 285 286 287
267 266 265 265 265 264 265 267 269 269 269 269 270 270 270 271 272 273 274 274 274 274 275 277 278 278 279 281 283 285 286 287 287 287 286 284 285 285 283 284 284 283 286
Wind_Speed
24 24 22 20 18 16 17 18 17 16 15 14 13 13 12 11 11 10 9 8 8 8 6 7 7 6 6 6 6 5 5 1 1 1 2 3 6 6 7 7 9 11 11
25 22 26 23 20 18 19 19 18 17 16 16 15 15 14 14 13 12 10 9 8 8 8 8 8 7 7 7 8 8 5 4 4 4 4 5 6 5 4 6 6 5 8
24 22 23 25 23 23 20 19 19 19 19 19 19 18 17 16 15 14 12 11 10 9 11 11 10 9 8 8 9 8 7 5 6 6 7 7 5 5 3 3 2 4 6
21 22 22 23 23 25 24 21 20 21 21 22 21 19 19 18 17 16 15 15 13 12 13 14 13 12 12 11 11 9 10 7 8 5 7 9 9 8 5 4 4 4 2
17 18 20 21 22 25 25 22 21 21 22 22 21 20 20 21 20 19 19 18 17 15 15 16 16 17 16 14 12 12 12 10 10 8 9 10 11 10 7 6 5 4 4
11 15 18 19 20 20 23 22 21 21 21 20 20 21 21 22 23 24 23 21 20 20 18 18 18 18 20 20 13 16 15 13 12 11 11 10 10 10 9 8 7 7 6
9 10 11 12 13 14 16 17 18 20 20 19 15 17 23 25 27 28 26 25 24 24 22 21 21 22 22 22 19 15 16 16 14 13 13 12 11 11 11 10 9 9 8
19 16 12 11 11 11 12 13 15 18 17 17 7 4 4 9 15 29 30 29 28 26 26 25 24 25 25 25 24 23 20 20 18 17 15 14 13 12 12 12 12 11 10
20 18 18 17 13 11 12 13 13 16 18 15 16 8 2 3 6 7 13 29 28 26 28 28 28 28 28 29 28 28 27 23 22 21 18 16 15 14 13 13 13 12 12
22 21 20 20 19 16 13 11 12 13 15 20 18 20 21 9 2 6 8 14 16 29 33 32 32 32 31 31 31 31 30 29 26 24 22 19 16 15 14 14 14 14 13
27 25 21 18 17 18 18 16 14 12 12 15 18 19 17 19 21 6 9 8 19 20 23 30 35 35 34 33 33 32 31 31 31 29 32 23 18 16 16 16 16 15 15
29 29 28 26 23 20 18 17 16 17 15 14 14 17 20 13 9 10 5 11 17 29 30 29 31 34 37 38 36 35 32 31 31 34 37 35 27 21 18 18 18 17 17
28 27 26 27 27 25 23 22 20 16 17 18 17 16 17 18 18 22 20 19 10 20 23 28 29 31 33 37 39 38 35 33 32 35 38 38 33 27 23 21 21 20 19
23 23 23 23 24 25 25 23 22 21 20 18 20 20 20 20 19 20 18 16 12 18 22 24 26 28 31 32 36 40 39 36 37 38 37 38 36 32 28 25 23 22 22
21 21 23 24 23 24 26 27 26 25 22 22 21 20 21 22 21 21 22 23 16 9 12 20 24 24 27 31 33 35 40 41 40 41 40 32 32 34 30 27 25 25 24
22 23 24 24 25 25 25 27 27 27 28 27 26 26 24 23 22 22 21 23 25 21 12 21 24 27 29 32 33 35 37 39 42 42 43 42 38 33 31 28 27 26 26
21 23 24 26 28 29 29 30 30 31 31 32 31 29 29 27 25 24 22 22 25 26 17 29 29 28 31 34 38 39 37 38 40 42 44 44 42 39 35 31 30 29 28
23 24 27 29 31 33 34 35 36 35 34 34 33 33 33 30 30 29 27 26 25 26 26 23 29 27 30 32 34 37 39 40 41 42 42 45 46 44 41 38 32 31 31
24 26 29 31 34 35 37 37 36 36 34 33 34 32 32 31 32 30 29 28 28 27 27 25 28 28 31 32 34 36 37 39 41 42 42 42 46 46 43 41 39 37 36
29 33 36 37 36 34 30 29 28 29 30 30 31 30 31 30 29 28 28 27 27 26 25 25 25 25 26 27 30 27 29 36 40 41 43 43 41 45 47 46 44 41 40
32 34 35 37 34 30 25 26 27 29 30 32 32 31 30 30 29 29 29 28 27 26 25 24 24 22 22 20 23 24 26 25 35 40 42 45 42 40 44 46 46 43 42
34 36 35 33 31 25 25 28 29 32 32 32 34 34 33 32 31 31 31 30 30 30 30 28 28 25 26 22 26 26 25 19 8 21 33 39 40 42 45 45 46 43 46
35 35 33 30 30 28 25 28 30 32 33 34 33 33 33 31 31 30 30 33 34 35 38 38 36 35 31 28 25 28 28 26 27 23 23 23 33 40 40 44 46 49 50
33 33 34 33 28 28 29 30 30 31 30 30 30 30 30 31 31 32 34 36 36 37 37 35 36 42 38 35 33 33 32 34 32 30 29 22 23 34 34 39 39 41 47
32 33 27 29 31 33 28 29 30 29 29 29 29 27 27 28 29 29 32 33 36 40 36 40 44 47 46 44 39 32 30 25 21 26 30 28 26 25 26 35 39 39 44
30 28 29 30 32 33 29 27 27 28 29 28 28 28 27 29 30 29 31 31 33 32 31 31 34 39 43 45 43 43 39 30 27 20 28 26 23 22 8 24 32 35 38
Wind_Direction
243 246 246 245 254 261 261 260 258 255 253 251 254 251 253 253 252 253 255 259 248 243 232 235 238 230 224 211 203 197 178 190 268 313 183 208 202 206 215 231 236 233 226
242 248 252 246 249 257 264 262 264 265 261 256 255 254 254 254 255 257 259 263 260 238 223 239 238 238 234 223 214 197 213 217 233 245 206 220 222 218 226 241 243 244 241
241 256 256 249 250 256 261 256 255 256 259 260 261 259 259 259 258 259 260 260 257 243 231 222 234 229 226 231 215 226 231 222 245 235 223 212 233 223 217 261 256 240 232
250 253 260 259 266 256 250 250 254 256 257 258 259 260 261 261 261 262 260 257 253 246 236 232 220 221 228 222 221 228 229 226 226 260 223 224 225 224 233 241 236 224 242
266 268 268 268 269 260 246 246 250 257 261 262 262 263 261 260 259 258 258 255 253 249 243 237 236 233 227 222 234 232 233 243 220 226 225 230 234 236 242 248 240 240 243
295 285 275 272 268 260 248 241 249 256 261 266 267 269 268 265 260 257 256 255 253 252 248 242 236 231 225 228 238 236 234 226 234 237 233 230 233 236 239 236 235 241 233
7 333 313 300 289 270 256 255 253 256 256 262 273 279 276 272 266 262 258 255 252 251 249 246 241 236 232 235 233 220 232 236 243 242 236 237 235 230 235 239 235 231 226
36 28 10 353 336 315 296 285 272 261 260 263 249 295 318 302 273 261 255 255 255 252 250 246 246 244 242 240 237 233 234 239 239 236 242 241 242 240 238 237 239 237 232
39 36 33 28 18 1 344 327 313 289 275 278 250 240 300 259 325 330 287 253 253 255 255 252 250 249 249 247 244 242 240 233 239 235 235 236 235 239 242 241 240 239 237
35 30 30 31 27 20 9 349 326 310 294 284 283 256 252 262 296 309 300 312 285 260 259 259 258 256 254 253 250 247 243 238 232 234 228 229 230 231 233 239 242 240 237
45 39 32 24 21 18 12 3 343 324 307 294 286 285 276 270 262 242 288 294 288 291 284 271 265 262 260 258 255 253 248 243 236 233 230 224 225 230 232 232 235 240 241
41 38 36 35 33 25 15 4 357 343 328 310 295 286 281 273 279 253 259 284 274 286 286 282 278 273 268 260 257 255 251 247 242 238 237 237 245 241 234 232 232 231 232
31 28 27 24 23 23 24 22 16 2 347 333 318 307 295 285 283 278 279 282 280 290 288 283 279 280 279 271 261 256 252 246 242 241 239 241 246 249 244 232 228 228 229
26 15 14 16 13 9 7 11 13 11 4 350 333 322 311 301 294 281 266 286 291 283 279 278 280 277 278 282 276 262 255 249 244 240 241 243 247 251 250 236 229 227 226
15 7 2 2 3 0 356 353 355 356 350 347 343 336 328 317 305 294 285 274 261 287 283 279 280 281 280 277 277 276 263 255 247 243 241 240 243 248 246 236 231 226 223
0 356 352 351 352 351 349 345 343 342 338 335 332 328 325 325 320 312 299 284 272 260 278 282 278 279 276 277 279 277 274 267 254 248 245 243 244 245 244 232 230 229 226
349 346 345 343 342 340 339 335 334 331 329 325 323 321 316 316 314 313 311 300 284 273 266 282 278 277 272 270 269 271 272 269 266 255 248 246 242 242 243 234 229 227 224
339 338 336 334 332 331 330 329 327 325 323 319 315 312 307 309 307 306 303 300 294 288 269 276 281 277 271 271 270 268 267 265 264 264 255 247 245 241 240 240 231 227 225
331 330 328 327 325 323 323 322 322 319 316 312 308 305 301 301 299 299 298 295 291 287 278 268 275 278 277 274 269 265 263 262 260 261 262 255 246 241 237 238 236 228 225
330 328 327 325 324 323 320 319 316 312 307 302 298 294 293 292 290 292 292 289 288 282 277 268 271 272 270 272 268 260 261 258 257 257 258 257 248 239 237 237 235 231 227
324 323 321 320 320 318 315 313 309 303 299 295 292 289 288 288 287 286 287 285 283 282 280 275 271 269 260 255 251 261 252 253 257 256 256 254 246 237 234 233 233 230 228
322 322 321 319 318 315 310 307 303 300 296 293 291 290 289 288 288 288 285 281 278 277 274 273 273 269 266 257 260 253 254 245 256 256 243 249 246 238 236 233 230 228 230
322 321 320 318 314 312 312 308 303 299 294 290 289 289 290 288 289 288 287 284 281 276 271 270 270 267 269 262 258 253 246 244 247 250 237 244 236 237 234 235 232 228 229
320 320 318 319 315 310 311 308 305 300 296 292 290 290 288 288 286 286 287 283 279 275 271 271 269 270 267 268 259 253 251 250 253 251 243 249 244 240 242 238 233 228 226
319 319 316 312 313 311 312 311 308 302 297 295 294 292 290 290 289 289 283 280 278 275 277 274 271 270 269 266 260 260 246 241 247 244 240 237 242 246 239 244 239 230 227
315 314 310 315 318 312 318 312 309 302 297 297 296 293 291 292 292 293 292 290 288 290 294 292 276 271 269 266 260 250 249 240 243 246 236 224 233 228 242 242 242 235 225